Location: Newark
(27.2452°N, 107.0032°W)
Time: 10:30:58
(UTC+00:00)

Hubble Space Telescope - Pass Details

Date: 17 December 2019
Orbit: 536 x 540 km, 28.5° (Epoch: 22 January)

Event Time Altitude Azimuth Distance (km) Brightness Sun altitude
Exits shadow 12:41:33 26° 272° (W) 1,063 1.7 -15.1°
Maximum altitude 12:43:46 77° 355° (N) 551 0.7 -14.7°
Drops below altitude 10° 12:47:54 10° 82° (E) 1,786 4.4 -13.8°
Sets 12:50:10 0° 84° (E) 2,677 5.6 -13.3°
